Flag for Indonesia Weather past 2 weeks in Medan, North Sumatra, Indonesia

Now
75 °F

Passing clouds.


Feels Like: 73 °F
Forecast: 76 / 92 °F
Wind: 5 mph from Northwest

Location: Medan / Polonia

Current Time: May 25, 2015 at 6:49:25 AM

Latest Report: May 25, 2015 at 6:00 AM


Visibility: 4 mi

Pressure: 29.83 "Hg

Humidity: 100%

Dew point: 75 °F

Location of MedanLocation

Historic Weather in Medan — Graph

°F

Medan temperature yesterday

Maximum temperature yesterday: 93 °F (at 11:00 AM)
Minimum temperature yesterday: 77 °F (at 10:00 PM)
Average temperature yesterday: 84 °F

Past Weeks' High & Low Weather Summary

 TemperatureHumidityPressure
High95 °F (May 19, 12:00 PM)100% (May 10, 5:30 AM)29.95 "Hg (May 10, 5:30 AM)
Low75 °F (May 13, 4:00 AM)56% (May 18, 12:00 PM)29.71 "Hg (May 10, 3:00 PM)
Average83 °F87%29.81 "Hg
* Reported May 10 5:00 AM — May 25 5:30 AM, Medan, Weather by CustomWeather, © 2015

Note: Actual official high and low records may vary slightly from our data, if they occured in-between our weather recording intervals... More about our weather records

Advertising

Medan weather history for previous 24 hours

 ConditionsComfort  
Time TempWeatherWind HumidityBarometerVisibility
5:30 AM
Mon, May 25
75 °FPassing clouds.3 mph100%29.83 "Hg3 mi
5:00 AM75 °FPassing clouds.3 mph100%29.83 "Hg2 mi
4:30 AM75 °FPassing clouds.No wind100%29.80 "Hg3 mi
4:00 AM75 °FPassing clouds.6 mph100%29.80 "Hg3 mi
3:30 AM75 °FPassing clouds.6 mph100%29.80 "Hg3 mi
3:00 AM75 °FPassing clouds.No wind100%29.80 "Hg3 mi
2:30 AM75 °FPassing clouds.No wind100%29.83 "Hg3 mi
2:00 AM75 °FPassing clouds.3 mph100%29.83 "Hg4 mi
1:30 AM75 °FPassing clouds.5 mph100%29.83 "Hg4 mi
1:00 AM75 °FPassing clouds.6 mph100%29.86 "Hg4 mi
12:30 AM75 °FPassing clouds.5 mph100%29.86 "Hg4 mi
12:00 AM75 °FPassing clouds.5 mph100%29.89 "Hg4 mi
11:30 PM
Sun, May 24
77 °FPassing clouds.8 mph94%29.89 "Hg4 mi
11:00 PM77 °FPassing clouds.6 mph94%29.89 "Hg4 mi
10:30 PM77 °FPassing clouds.9 mph94%29.89 "Hg4 mi
10:00 PM77 °FPassing clouds.7 mph94%29.89 "Hg4 mi
9:30 PM79 °FPassing clouds.9 mph84%29.89 "Hg4 mi
9:00 PM79 °FPassing clouds.8 mph89%29.89 "Hg4 mi
8:30 PM81 °FPassing clouds.18 mph84%29.89 "Hg4 mi
8:00 PM82 °FPassing clouds.14 mph84%29.86 "Hg4 mi
7:30 PM84 °FPassing clouds.2 mph89%29.83 "Hg6 mi
7:00 PM84 °FPassing clouds.6 mph89%29.80 "HgN/A
6:30 PM86 °FPassing clouds.7 mph84%29.80 "HgN/A
6:00 PM86 °FPassing clouds.9 mph79%29.77 "HgN/A
5:30 PM88 °FPassing clouds.13 mph75%29.77 "HgN/A
5:00 PM91 °FPassing clouds.14 mph67%29.74 "HgN/A
4:30 PM93 °FPassing clouds.12 mph59%29.74 "HgN/A
4:00 PM91 °FPassing clouds.13 mph67%29.74 "HgN/A
3:30 PM91 °FPassing clouds.13 mph67%29.74 "HgN/A
3:00 PM91 °FPassing clouds.13 mph67%29.77 "HgN/A
2:30 PM91 °FPassing clouds.13 mph67%29.77 "HgN/A
2:00 PM93 °FPassing clouds.12 mph63%29.77 "HgN/A
1:30 PM93 °FPassing clouds.13 mph63%29.77 "HgN/A
1:00 PM93 °FPassing clouds.12 mph67%29.80 "HgN/A
12:30 PM91 °FScattered clouds.10 mph71%29.80 "HgN/A
12:00 PM91 °FScattered clouds.9 mph71%29.83 "HgN/A
11:30 AM91 °FScattered clouds.8 mph71%29.83 "HgN/A
11:00 AM93 °FScattered clouds.6 mph63%29.83 "HgN/A
10:30 AM91 °FPassing clouds.6 mph67%29.86 "HgN/A
10:00 AM90 °FPassing clouds.6 mph71%29.86 "HgN/A
9:30 AM86 °FPassing clouds.7 mph79%29.86 "HgN/A
9:00 AM86 °FPassing clouds.6 mph79%29.86 "HgN/A
8:00 AM81 °FPassing clouds.No wind94%29.83 "Hg3 mi
7:30 AM79 °FFog.3 mph100%29.83 "Hg2 mi
7:00 AM79 °FFog.5 mph94%29.80 "Hg1 mi
6:30 AM79 °FFog.5 mph94%29.80 "Hg1 mi
6:00 AM79 °FFog.2 mph94%29.80 "Hg2 mi
Weather by CustomWeather, © 2015

See weather overviewHow to use our weather pages